World > North America > United States > Mississippi

Swan Lake, Mississippi Regional Weather

Lat: 33.87N, Lon: 90.28W
Wx Zone: MSZ020Web Search

Helpful Tip: Type the letters wx in the search engine next time you need to find us.

Feedback


°F Click to change Swan Lake hourly weather to Imperial units.Click to change Swan Lake hourly weather to Metric units. °C
Swan Lake Weather Map
UTC Time: 4/16/2021, 17:44
Your Time:

Swan Lake, MS Regional Weather

Expires:202104161800;;647587
ASUS44 KJAN 161710
RWRMS 

MISSISSIPPI HOURLY WEATHER ROUNDUP
NATIONAL WEATHER SERVICE JACKSON MS
1200 PM CDT FRI APR 16 2021

NOTE: "FAIR: INDICATES FEW OR NO CLOUDS BELOW 12,000 FEET WITH NO
SIGNIFICANT WEATHER AND/OR OBSTRUCTIONS TO VISIBILITY.


MSZ001>002-007>008-010>013-018>021-025>028-034>036-161800-
NORTHWEST MISSISSIPPI
  
CITY           SKY/WX    TMP DP  RH WIND       PRES   REMARKS
BATESVILLE     FAIR      61  43  51 CALM      29.96S                  
CLARKSDALE       N/A     59  41  51 E8        29.97S                  
CLEVELAND      FAIR      63  40  43 E8        29.95F                  
GREENWOOD      SUNNY     64  43  46 E6        29.94F                  
GREENVILLE     CLOUDY    63  44  50 NE9       29.94R                  
OLIVE BRANCH   PTSUNNY   61  37  41 E9        29.96F                  
OXFORD         MOSUNNY   59  37  44 NE8       29.97S                  
TUNICA         MOSUNNY   57  37  47 E8        29.98S                  
WINONA         FAIR      60  41  49 CALM      29.95S                  
$$


SKY/WX - Weather  TMP - Temperature  DP - Dew Point  RH - Relative Humidity
WIND - Wind Direction/Speed PRES - Barometric Pressure VSB - Visibility
WCI - Wind Chill Index E13G22 Wind - East Wind 13 mph/Gusts of 22 mph